N7962B KMEM-KMEM

Flight info

Callsign N7962B
Flight time 0h 12m
Altitude 4500
Route VFR LOCAL
Aircraft C172/L-SFG/L

Departure

Time 2026-05-05 07:32
Airport Memphis International Airport (KMEM)

Arrival

Time 2026-05-05 07:44
Airport Memphis International Airport (KMEM)
Time Latitude Longitude Altitude Speed Heading
2026-05-05 07:11 35.05482 -89.98148 337 ft 0 kts 270°
2026-05-05 07:25 35.05482 -89.98149 337 ft 0 kts 269°
2026-05-05 07:26 35.05483 -89.98158 337 ft 3 kts 269°
2026-05-05 07:26 35.05490 -89.98209 337 ft 9 kts 295°
2026-05-05 07:26 35.05500 -89.98305 337 ft 12 kts 281°
2026-05-05 07:27 35.05548 -89.98374 337 ft 11 kts 322°
2026-05-05 07:27 35.05571 -89.98458 337 ft 10 kts 272°
2026-05-05 07:27 35.05522 -89.98506 338 ft 11 kts 179°
2026-05-05 07:27 35.05441 -89.98508 337 ft 12 kts 181°
2026-05-05 07:28 35.05341 -89.98508 338 ft 15 kts 181°
2026-05-05 07:28 35.05227 -89.98509 338 ft 16 kts 181°
2026-05-05 07:28 35.05117 -89.98524 338 ft 16 kts 197°
2026-05-05 07:28 35.05012 -89.98581 338 ft 16 kts 205°
2026-05-05 07:29 35.04941 -89.98636 337 ft 4 kts 241°
2026-05-05 07:29 35.04939 -89.98641 337 ft 0 kts 251°
2026-05-05 07:30 35.04935 -89.98698 337 ft 9 kts 251°
2026-05-05 07:30 35.04870 -89.98743 338 ft 14 kts 179°
2026-05-05 07:31 35.04597 -89.98741 352 ft 58 kts 182°
2026-05-05 07:31 35.04189 -89.98738 528 ft 60 kts 180°
2026-05-05 07:31 35.03775 -89.98698 725 ft 57 kts 182°
2026-05-05 07:31 35.03376 -89.98647 905 ft 56 kts 179°
2026-05-05 07:32 35.03051 -89.98862 1067 ft 62 kts 238°
2026-05-05 07:32 35.03070 -89.99416 1287 ft 69 kts 268°
2026-05-05 07:32 35.03217 -89.99983 1413 ft 74 kts 269°
2026-05-05 07:32 35.03508 -90.00588 1464 ft 97 kts 306°
2026-05-05 07:33 35.04208 -90.00849 1508 ft 116 kts 353°
2026-05-05 07:33 35.05051 -90.00775 1480 ft 124 kts 359°
2026-05-05 07:33 35.05922 -90.00716 1424 ft 126 kts 353°
2026-05-05 07:33 35.06790 -90.00761 1383 ft 121 kts 347°
2026-05-05 07:34 35.07615 -90.00859 1279 ft 117 kts 348°
2026-05-05 07:34 35.08394 -90.00861 1221 ft 108 kts 13°
2026-05-05 07:34 35.08924 -90.00314 1153 ft 98 kts 78°
2026-05-05 07:34 35.08999 -89.99547 1114 ft 88 kts 104°
2026-05-05 07:35 35.08860 -89.98893 1050 ft 69 kts 152°
2026-05-05 07:35 35.08447 -89.98798 979 ft 60 kts 186°
2026-05-05 07:35 35.08023 -89.98801 899 ft 61 kts 184°
2026-05-05 07:35 35.07588 -89.98795 830 ft 61 kts 185°
2026-05-05 07:36 35.07180 -89.98785 760 ft 56 kts 185°
2026-05-05 07:36 35.06798 -89.98777 675 ft 55 kts 180°
2026-05-05 07:36 35.06404 -89.98767 606 ft 57 kts 176°
2026-05-05 07:36 35.05998 -89.98765 535 ft 59 kts 175°
2026-05-05 07:37 35.05597 -89.98753 472 ft 57 kts 182°
2026-05-05 07:37 35.05193 -89.98747 413 ft 58 kts 178°
2026-05-05 07:37 35.04794 -89.98738 338 ft 50 kts 180°
2026-05-05 07:37 35.04388 -89.98737 385 ft 67 kts 180°
2026-05-05 07:38 35.03923 -89.98712 572 ft 66 kts 178°
2026-05-05 07:38 35.03484 -89.98679 798 ft 61 kts 180°
2026-05-05 07:38 35.03059 -89.98686 968 ft 61 kts 207°
2026-05-05 07:38 35.02865 -89.99152 1124 ft 73 kts 262°
2026-05-05 07:39 35.02940 -89.99779 1267 ft 76 kts 262°
2026-05-05 07:39 35.02990 -90.00433 1391 ft 81 kts 260°
2026-05-05 07:39 35.03232 -90.01123 1392 ft 103 kts 300°
2026-05-05 07:39 35.03942 -90.01511 1361 ft 122 kts 347°
2026-05-05 07:40 35.04803 -90.01530 1362 ft 122 kts 352°
2026-05-05 07:40 35.05658 -90.01563 1363 ft 122 kts 353°
2026-05-05 07:40 35.06504 -90.01594 1363 ft 116 kts 351°
2026-05-05 07:40 35.07288 -90.01632 1322 ft 113 kts 353°
2026-05-05 07:41 35.08018 -90.01278 1197 ft 114 kts 51°
2026-05-05 07:41 35.08266 -90.00448 1090 ft 100 kts 94°
2026-05-05 07:41 35.08329 -89.99612 1062 ft 96 kts 95°
2026-05-05 07:41 35.08235 -89.98878 1014 ft 79 kts 143°
2026-05-05 07:42 35.07780 -89.98779 906 ft 68 kts 189°
2026-05-05 07:42 35.07328 -89.98782 761 ft 63 kts 184°
2026-05-05 07:42 35.06908 -89.98778 672 ft 58 kts 183°
2026-05-05 07:42 35.06500 -89.98776 586 ft 59 kts 182°
2026-05-05 07:43 35.06093 -89.98761 533 ft 57 kts 182°
2026-05-05 07:43 35.05695 -89.98756 495 ft 58 kts 181°
2026-05-05 07:43 35.05274 -89.98752 431 ft 59 kts 180°
2026-05-05 07:43 35.04866 -89.98740 358 ft 56 kts 181°
2026-05-05 07:44 35.04545 -89.98737 338 ft 37 kts 178°
2026-05-05 07:44 35.04235 -89.98727 350 ft 60 kts 181°
2026-05-05 07:44 35.03804 -89.98709 509 ft 65 kts 179°
2026-05-05 07:44 35.03355 -89.98679 717 ft 62 kts 181°
2026-05-05 07:45 35.02915 -89.98639 907 ft 63 kts 179°
2026-05-05 07:45 35.02565 -89.98910 1066 ft 67 kts 237°
2026-05-05 07:45 35.02578 -89.99487 1298 ft 68 kts 263°
2026-05-05 07:45 35.02643 -90.00096 1381 ft 78 kts 263°
2026-05-05 07:46 35.02729 -90.00776 1387 ft 90 kts 281°
2026-05-05 07:46 35.03254 -90.01329 1396 ft 110 kts 329°
2026-05-05 07:46 35.04060 -90.01448 1374 ft 120 kts 350°
2026-05-05 07:46 35.04894 -90.01468 1383 ft 120 kts 351°
2026-05-05 07:47 35.05745 -90.01500 1378 ft 122 kts 352°
2026-05-05 07:47 35.06595 -90.01522 1379 ft 122 kts 352°
2026-05-05 07:47 35.07429 -90.01545 1317 ft 117 kts 351°
2026-05-05 07:47 35.08135 -90.01142 1204 ft 109 kts 64°
2026-05-05 07:48 35.08322 -90.00337 1108 ft 94 kts 94°
2026-05-05 07:48 35.08409 -89.99554 1063 ft 89 kts 95°
2026-05-05 07:48 35.08342 -89.98869 974 ft 71 kts 147°
2026-05-05 07:48 35.07913 -89.98785 855 ft 64 kts 188°
2026-05-05 07:49 35.07484 -89.98783 796 ft 56 kts 182°
2026-05-05 07:49 35.07099 -89.98784 709 ft 55 kts 182°
2026-05-05 07:49 35.06717 -89.98770 668 ft 53 kts 184°
2026-05-05 07:49 35.06323 -89.98765 595 ft 57 kts 181°
2026-05-05 07:50 35.05930 -89.98761 541 ft 58 kts 180°
2026-05-05 07:50 35.05521 -89.98753 477 ft 58 kts 180°
2026-05-05 07:50 35.05109 -89.98747 404 ft 60 kts 179°
2026-05-05 07:50 35.04710 -89.98738 338 ft 48 kts 182°
2026-05-05 07:51 35.04448 -89.98739 338 ft 29 kts 177°
2026-05-05 07:51 35.04240 -89.98727 338 ft 45 kts 179°
2026-05-05 07:51 35.03836 -89.98715 446 ft 63 kts 177°
2026-05-05 07:51 35.03381 -89.98676 615 ft 66 kts 180°
2026-05-05 07:52 35.02929 -89.98628 821 ft 64 kts 179°
2026-05-05 07:52 35.02517 -89.98742 981 ft 65 kts 225°
2026-05-05 07:52 35.02462 -89.99284 1222 ft 67 kts 265°
2026-05-05 07:52 35.02543 -89.99841 1398 ft 67 kts 262°
2026-05-05 07:53 35.02599 -90.00488 1381 ft 80 kts 261°
2026-05-05 07:53 35.02758 -90.01181 1386 ft 96 kts 291°
2026-05-05 07:53 35.03380 -90.01674 1381 ft 118 kts 336°
2026-05-05 07:53 35.04215 -90.01765 1427 ft 119 kts 351°
2026-05-05 07:54 35.05067 -90.01820 1395 ft 125 kts 348°
2026-05-05 07:54 35.05921 -90.01894 1364 ft 120 kts 351°
2026-05-05 07:54 35.06747 -90.01934 1359 ft 114 kts 349°
2026-05-05 07:54 35.07554 -90.01965 1479 ft 118 kts 349°
2026-05-05 07:55 35.08395 -90.01969 1432 ft 118 kts
2026-05-05 07:55 35.08979 -90.01353 1362 ft 113 kts 81°
2026-05-05 07:55 35.09094 -90.00426 1289 ft 111 kts 94°
2026-05-05 07:55 35.09130 -89.99497 1217 ft 100 kts 114°
2026-05-05 07:56 35.08792 -89.98904 1066 ft 78 kts 165°
2026-05-05 07:56 35.08293 -89.98798 966 ft 69 kts 187°
2026-05-05 07:56 35.07812 -89.98794 888 ft 69 kts 180°
2026-05-05 07:56 35.07358 -89.98795 806 ft 60 kts 182°
2026-05-05 07:57 35.06956 -89.98776 721 ft 53 kts 184°
2026-05-05 07:57 35.06571 -89.98778 655 ft 54 kts 183°
2026-05-05 07:57 35.06192 -89.98769 570 ft 54 kts 179°
2026-05-05 07:57 35.05797 -89.98763 520 ft 58 kts 179°
2026-05-05 07:58 35.05392 -89.98756 459 ft 58 kts 179°
2026-05-05 07:58 35.04980 -89.98744 370 ft 59 kts 178°
2026-05-05 07:58 35.04631 -89.98735 338 ft 38 kts 182°
2026-05-05 07:58 35.04403 -89.98733 338 ft 35 kts 176°
2026-05-05 07:59 35.04029 -89.98727 413 ft 62 kts 181°
2026-05-05 07:59 35.03573 -89.98712 573 ft 67 kts 180°
2026-05-05 07:59 35.03128 -89.98688 805 ft 61 kts 182°
2026-05-05 07:59 35.02679 -89.98673 963 ft 66 kts 181°
2026-05-05 08:00 35.02217 -89.98642 1141 ft 66 kts 181°
2026-05-05 08:00 35.01774 -89.98592 1367 ft 62 kts 181°
2026-05-05 08:00 35.01370 -89.98520 1607 ft 56 kts 180°
2026-05-05 08:00 35.01000 -89.98418 1841 ft 53 kts 181°
2026-05-05 08:01 35.00649 -89.98304 2017 ft 51 kts 179°
2026-05-05 08:01 35.00313 -89.98184 2197 ft 50 kts 181°
2026-05-05 08:01 34.99990 -89.98056 2398 ft 48 kts 179°
2026-05-05 08:01 34.99687 -89.97926 2586 ft 45 kts 176°
2026-05-05 08:02 34.99385 -89.97801 2747 ft 49 kts 179°
2026-05-05 08:02 34.99031 -89.97688 2883 ft 56 kts 178°
2026-05-05 08:02 34.98627 -89.97582 3026 ft 61 kts 181°
2026-05-05 08:02 34.98201 -89.97480 3172 ft 64 kts 179°
2026-05-05 08:03 34.97745 -89.97379 3322 ft 67 kts 181°
2026-05-05 08:03 34.97267 -89.97269 3449 ft 71 kts 180°
2026-05-05 08:03 34.96746 -89.97166 3474 ft 78 kts 182°
2026-05-05 08:03 34.96179 -89.97058 3472 ft 84 kts 181°
2026-05-05 08:04 34.95584 -89.96948 3472 ft 88 kts 181°
2026-05-05 08:04 34.94958 -89.96837 3470 ft 90 kts 182°
2026-05-05 08:04 34.94328 -89.96723 3473 ft 92 kts 182°
2026-05-05 08:04 34.93692 -89.96600 3471 ft 92 kts 180°
2026-05-05 08:05 34.93052 -89.96485 3472 ft 92 kts 182°
2026-05-05 08:05 34.92421 -89.96371 3475 ft 91 kts 181°
2026-05-05 08:05 34.91790 -89.96254 3478 ft 91 kts 181°
2026-05-05 08:05 34.91154 -89.96146 3477 ft 92 kts 181°
2026-05-05 08:06 34.90516 -89.96046 3477 ft 92 kts 181°
2026-05-05 08:06 34.89883 -89.95943 3477 ft 92 kts 181°
2026-05-05 08:06 34.89234 -89.95840 3483 ft 93 kts 182°
2026-05-05 08:06 34.88596 -89.95740 3481 ft 91 kts 181°
2026-05-05 08:07 34.87990 -89.95445 3480 ft 104 kts 148°
2026-05-05 08:07 34.87685 -89.94581 3480 ft 121 kts 103°
2026-05-05 08:07 34.87911 -89.93551 3485 ft 131 kts 66°
2026-05-05 08:07 34.88370 -89.92587 3482 ft 132 kts 62°
2026-05-05 08:08 34.88874 -89.91646 3485 ft 132 kts 60°
2026-05-05 08:08 34.89383 -89.90709 3487 ft 133 kts 60°
2026-05-05 08:08 34.89896 -89.89773 3488 ft 134 kts 60°
2026-05-05 08:08 34.90416 -89.88827 3488 ft 134 kts 60°
2026-05-05 08:09 34.90936 -89.87872 3486 ft 134 kts 60°
2026-05-05 08:09 34.91452 -89.86928 3488 ft 134 kts 60°
2026-05-05 08:09 34.91975 -89.85974 3491 ft 134 kts 60°
2026-05-05 08:09 34.92495 -89.85025 3488 ft 134 kts 60°
2026-05-05 08:10 34.93014 -89.84076 3490 ft 134 kts 61°
2026-05-05 08:10 34.93534 -89.83134 3489 ft 133 kts 61°
2026-05-05 08:10 34.93977 -89.82159 3486 ft 131 kts 68°
2026-05-05 08:10 34.94399 -89.81168 3485 ft 131 kts 67°
2026-05-05 08:11 34.94815 -89.80183 3489 ft 131 kts 68°
2026-05-05 08:11 34.95236 -89.79192 3483 ft 131 kts 68°
2026-05-05 08:11 34.95659 -89.78197 3483 ft 131 kts 68°
2026-05-05 08:11 34.96084 -89.77205 3478 ft 132 kts 68°
2026-05-05 08:12 34.96511 -89.76211 3479 ft 132 kts 68°
2026-05-05 08:12 34.96932 -89.75213 3478 ft 133 kts 68°
2026-05-05 08:12 34.97355 -89.74207 3481 ft 133 kts 69°
2026-05-05 08:12 34.97782 -89.73200 3478 ft 133 kts 68°
2026-05-05 08:13 34.98209 -89.72200 3478 ft 133 kts 68°
2026-05-05 08:13 34.98641 -89.71188 3480 ft 133 kts 68°
2026-05-05 08:13 34.99063 -89.70192 3480 ft 133 kts 68°
2026-05-05 08:13 34.99490 -89.69182 3483 ft 132 kts 68°
2026-05-05 08:14 34.99905 -89.68193 3484 ft 132 kts 68°
2026-05-05 08:14 35.00326 -89.67188 3486 ft 132 kts 69°
2026-05-05 08:14 35.00747 -89.66197 3485 ft 133 kts 68°
2026-05-05 08:14 35.01176 -89.65179 3484 ft 133 kts 68°
2026-05-05 08:15 35.01603 -89.64175 3486 ft 133 kts 69°
2026-05-05 08:15 35.02033 -89.63176 3484 ft 132 kts 68°
2026-05-05 08:15 35.02468 -89.62180 3482 ft 132 kts 68°
2026-05-05 08:15 35.02901 -89.61189 3483 ft 132 kts 68°
2026-05-05 08:16 35.03331 -89.60188 3485 ft 133 kts 69°
2026-05-05 08:16 35.03755 -89.59184 3481 ft 133 kts 68°
2026-05-05 08:16 35.04179 -89.58182 3484 ft 133 kts 68°
2026-05-05 08:16 35.04608 -89.57168 3487 ft 133 kts 68°
2026-05-05 08:17 35.05026 -89.56172 3486 ft 133 kts 69°
2026-05-05 08:17 35.05465 -89.55159 3485 ft 132 kts 68°
2026-05-05 08:17 35.05892 -89.54173 3484 ft 133 kts 68°
2026-05-05 08:17 35.06321 -89.53174 3483 ft 132 kts 67°
2026-05-05 08:18 35.06746 -89.52168 3485 ft 133 kts 68°
2026-05-05 08:18 35.07168 -89.51176 3487 ft 132 kts 67°
2026-05-05 08:18 35.07586 -89.50169 3488 ft 133 kts 68°
2026-05-05 08:18 35.07928 -89.49133 3487 ft 126 kts 91°
2026-05-05 08:19 35.08009 -89.48076 3487 ft 125 kts 96°
2026-05-05 08:19 35.08064 -89.47015 3483 ft 125 kts 96°
2026-05-05 08:19 35.08126 -89.45951 3483 ft 125 kts 96°
2026-05-05 08:19 35.08187 -89.44897 3486 ft 125 kts 96°
2026-05-05 08:20 35.08246 -89.43838 3485 ft 125 kts 96°
2026-05-05 08:20 35.08298 -89.42782 3483 ft 125 kts 96°
2026-05-05 08:20 35.08358 -89.41714 3486 ft 125 kts 95°
2026-05-05 08:20 35.08416 -89.40664 3486 ft 125 kts 95°
2026-05-05 08:21 35.08475 -89.39600 3487 ft 125 kts 96°
2026-05-05 08:21 35.08538 -89.38546 3497 ft 123 kts 96°
2026-05-05 08:21 35.08593 -89.37503 3505 ft 123 kts 96°
2026-05-05 08:21 35.08653 -89.36451 3507 ft 124 kts 96°
2026-05-05 08:22 35.08713 -89.35384 3507 ft 125 kts 96°
2026-05-05 08:22 35.08772 -89.34325 3504 ft 125 kts 96°
2026-05-05 08:22 35.08823 -89.33257 3503 ft 125 kts 96°
2026-05-05 08:22 35.08879 -89.32207 3500 ft 125 kts 97°
2026-05-05 08:23 35.08943 -89.31147 3498 ft 125 kts 96°
2026-05-05 08:23 35.09002 -89.30090 3501 ft 125 kts 96°
2026-05-05 08:23 35.09061 -89.29026 3498 ft 124 kts 95°
2026-05-05 08:23 35.09111 -89.27973 3501 ft 123 kts 97°
2026-05-05 08:24 35.09162 -89.26939 3500 ft 123 kts 96°
2026-05-05 08:24 35.09215 -89.25887 3502 ft 124 kts 96°
2026-05-05 08:24 35.09272 -89.24839 3502 ft 124 kts 96°
2026-05-05 08:24 35.09330 -89.23772 3498 ft 123 kts 96°
2026-05-05 08:25 35.09380 -89.22726 3500 ft 123 kts 96°
2026-05-05 08:25 35.09437 -89.21693 3500 ft 123 kts 96°
2026-05-05 08:25 35.09495 -89.20646 3500 ft 123 kts 95°
2026-05-05 08:25 35.09545 -89.19613 3497 ft 123 kts 95°
2026-05-05 08:26 35.09596 -89.18568 3496 ft 123 kts 96°
2026-05-05 08:26 35.09649 -89.17512 3497 ft 124 kts 96°
2026-05-05 08:26 35.09698 -89.16467 3496 ft 124 kts 97°
2026-05-05 08:26 35.09755 -89.15417 3498 ft 124 kts 96°
2026-05-05 08:27 35.09814 -89.14359 3499 ft 124 kts 96°
2026-05-05 08:27 35.09877 -89.13300 3498 ft 127 kts 88°
2026-05-05 08:27 35.10312 -89.12347 3499 ft 134 kts 45°
2026-05-05 08:27 35.11031 -89.11609 3495 ft 133 kts 38°
2026-05-05 08:28 35.11765 -89.10908 3490 ft 133 kts 37°
2026-05-05 08:28 35.12492 -89.10208 3490 ft 133 kts 38°
2026-05-05 08:28 35.13218 -89.09514 3495 ft 132 kts 39°
2026-05-05 08:28 35.13952 -89.08818 3495 ft 133 kts 38°
2026-05-05 08:29 35.14682 -89.08129 3493 ft 133 kts 38°
2026-05-05 08:29 35.15413 -89.07436 3491 ft 133 kts 38°
2026-05-05 08:29 35.16150 -89.06738 3491 ft 133 kts 37°
2026-05-05 08:30 35.17609 -89.05356 3488 ft 132 kts 38°
2026-05-05 08:30 35.18335 -89.04662 3492 ft 133 kts 37°
2026-05-05 08:30 35.19068 -89.03955 3491 ft 133 kts 37°
2026-05-05 08:30 35.19798 -89.03256 3490 ft 132 kts 38°
2026-05-05 08:31 35.20517 -89.02567 3492 ft 132 kts 38°
2026-05-05 08:31 35.21245 -89.01872 3492 ft 132 kts 38°
2026-05-05 08:31 35.21968 -89.01178 3491 ft 132 kts 38°
2026-05-05 08:31 35.22619 -89.00380 3493 ft 132 kts 51°
2026-05-05 08:32 35.23217 -88.99525 3495 ft 132 kts 52°
2026-05-05 08:32 35.23809 -88.98670 3495 ft 132 kts 52°
2026-05-05 08:32 35.24408 -88.97819 3500 ft 132 kts 52°
2026-05-05 08:32 35.25009 -88.96959 3502 ft 131 kts 52°
2026-05-05 08:33 35.25601 -88.96112 3505 ft 131 kts 52°
2026-05-05 08:33 35.26200 -88.95270 3513 ft 131 kts 51°
2026-05-05 08:33 35.26794 -88.94426 3514 ft 131 kts 52°
2026-05-05 08:33 35.27390 -88.93580 3512 ft 132 kts 52°
2026-05-05 08:34 35.27994 -88.92717 3512 ft 132 kts 51°
2026-05-05 08:34 35.28589 -88.91867 3505 ft 133 kts 51°
2026-05-05 08:34 35.29187 -88.91003 3504 ft 133 kts 52°
2026-05-05 08:34 35.29794 -88.90128 3511 ft 133 kts 51°
2026-05-05 08:35 35.30389 -88.89267 3508 ft 133 kts 51°
2026-05-05 08:35 35.30987 -88.88402 3508 ft 133 kts 52°
2026-05-05 08:35 35.31585 -88.87539 3506 ft 133 kts 52°
2026-05-05 08:35 35.32195 -88.86671 3498 ft 134 kts 52°
2026-05-05 08:36 35.32800 -88.85799 3500 ft 134 kts 52°
2026-05-05 08:36 35.33397 -88.84934 3493 ft 134 kts 51°
2026-05-05 08:36 35.34002 -88.84051 3496 ft 134 kts 52°
2026-05-05 08:36 35.34609 -88.83171 3499 ft 134 kts 52°
2026-05-05 08:37 35.35214 -88.82298 3496 ft 134 kts 51°
2026-05-05 08:37 35.35822 -88.81427 3494 ft 134 kts 52°
2026-05-05 08:37 35.36428 -88.80557 3493 ft 135 kts 51°
2026-05-05 08:37 35.37029 -88.79686 3494 ft 134 kts 51°
2026-05-05 08:38 35.37632 -88.78815 3503 ft 134 kts 52°
2026-05-05 08:38 35.38244 -88.77932 3499 ft 134 kts 52°
2026-05-05 08:38 35.38851 -88.77064 3492 ft 134 kts 52°
2026-05-05 08:38 35.39462 -88.76193 3500 ft 134 kts 52°
2026-05-05 08:39 35.40064 -88.75321 3502 ft 134 kts 51°
2026-05-05 08:39 35.40670 -88.74450 3500 ft 133 kts 51°
2026-05-05 08:39 35.41267 -88.73597 3501 ft 133 kts 51°
2026-05-05 08:39 35.41876 -88.72724 3498 ft 133 kts 51°
2026-05-05 08:40 35.42478 -88.71860 3502 ft 133 kts 52°
2026-05-05 08:40 35.43083 -88.70998 3499 ft 134 kts 51°
2026-05-05 08:40 35.43698 -88.70118 3499 ft 135 kts 51°
2026-05-05 08:40 35.44298 -88.69254 3498 ft 134 kts 51°
2026-05-05 08:41 35.44911 -88.68376 3502 ft 134 kts 52°
2026-05-05 08:41 35.45517 -88.67511 3499 ft 135 kts 51°
2026-05-05 08:41 35.46126 -88.66642 3503 ft 134 kts 51°
2026-05-05 08:41 35.46736 -88.65773 3502 ft 135 kts 51°
2026-05-05 08:42 35.47351 -88.64894 3504 ft 135 kts 51°
2026-05-05 08:42 35.47958 -88.64022 3503 ft 135 kts 51°
2026-05-05 08:42 35.48570 -88.63150 3504 ft 134 kts 52°
2026-05-05 08:42 35.49180 -88.62280 3503 ft 135 kts 51°
2026-05-05 08:43 35.49784 -88.61398 3504 ft 134 kts 51°
2026-05-05 08:43 35.50389 -88.60525 3505 ft 134 kts 51°
2026-05-05 08:43 35.50998 -88.59644 3501 ft 134 kts 52°
2026-05-05 08:43 35.51593 -88.58778 3504 ft 134 kts 51°
2026-05-05 08:44 35.52200 -88.57909 3503 ft 133 kts 51°
2026-05-05 08:44 35.52808 -88.57042 3505 ft 134 kts 51°
2026-05-05 08:44 35.53418 -88.56167 3507 ft 135 kts 52°
2026-05-05 08:44 35.54037 -88.55292 3506 ft 136 kts 51°
2026-05-05 08:45 35.54655 -88.54417 3504 ft 135 kts 51°
2026-05-05 08:45 35.55270 -88.53544 3505 ft 135 kts 51°
2026-05-05 08:45 35.55886 -88.52662 3506 ft 135 kts 51°
2026-05-05 08:45 35.56501 -88.51781 3501 ft 136 kts 51°
2026-05-05 08:46 35.57117 -88.50903 3508 ft 136 kts 51°
2026-05-05 08:46 35.57737 -88.50016 3503 ft 136 kts 51°
2026-05-05 08:46 35.58353 -88.49132 3504 ft 136 kts 51°
2026-05-05 08:46 35.58972 -88.48247 3504 ft 135 kts 52°
2026-05-05 08:47 35.59586 -88.47369 3501 ft 135 kts 51°
2026-05-05 08:47 35.60196 -88.46485 3498 ft 136 kts 51°
2026-05-05 08:47 35.60804 -88.45609 3498 ft 135 kts 51°
2026-05-05 08:47 35.61422 -88.44730 3498 ft 134 kts 51°
2026-05-05 08:48 35.62035 -88.43853 3499 ft 135 kts 50°
2026-05-05 08:48 35.62637 -88.42982 3495 ft 135 kts 51°
2026-05-05 08:48 35.63257 -88.42099 3494 ft 135 kts 51°
2026-05-05 08:48 35.63871 -88.41235 3496 ft 135 kts 51°
2026-05-05 08:49 35.64495 -88.40344 3492 ft 136 kts 51°
2026-05-05 08:49 35.65115 -88.39465 3492 ft 137 kts 51°
2026-05-05 08:49 35.65736 -88.38572 3493 ft 137 kts 51°
2026-05-05 08:49 35.66354 -88.37685 3491 ft 137 kts 51°
2026-05-05 08:50 35.66978 -88.36790 3498 ft 137 kts 50°
2026-05-05 08:50 35.67606 -88.35889 3498 ft 138 kts 51°
2026-05-05 08:50 35.68231 -88.34995 3498 ft 138 kts 52°
2026-05-05 08:50 35.68864 -88.34089 3491 ft 137 kts 51°